This demonstration page uses our WeatherBlox Daily Observations layout. Learn more.

Left ArrowRight Arrow

53.62937, 11.41316

Hourly Observations for December 18, 2016

Temp ( °F °C ) Dew Point ( °F °C ) Humidity (%) Winds ( mph kmh ) Pressure ( in mb ) Visibility ( mi km ) Precip ( " mm )
6:50 am 06:50 Cloudy with Drizzle 43 6 41 5 93 93 W 9 15 30.45 1031 2 4 N/A
7:20 am 07:20 Cloudy with Drizzle 43 6 41 5 93 93 W 8 13 30.45 1031 4 6 N/A
7:50 am 07:50 Cloudy with Drizzle 43 6 43 6 100 100 W 6 9 30.45 1031 4 6 N/A
8:20 am 08:20 Mostly Cloudy 43 6 43 6 100 100 W 5 7 30.45 1031 6 9 N/A
8:50 am 08:50 Cloudy 43 6 43 6 100 100 W 6 9 30.45 1031 6 9 N/A
9:20 am 09:20 Mostly Cloudy 43 6 43 6 100 100 W 5 7 30.45 1031 6 9 N/A
9:50 am 09:50 Mostly Cloudy 45 7 43 6 93 93 W 6 9 30.45 1031 6 9 N/A
10:20 am 10:20 Mostly Cloudy 45 7 43 6 93 93 W 7 11 30.45 1031 30 48 N/A
10:50 am 10:50 Mostly Cloudy 45 7 43 6 93 93 W 6 9 30.45 1031 30 48 N/A
11:20 am 11:20 Mostly Cloudy 45 7 45 7 100 100 W 5 7 30.45 1031 30 48 N/A
11:50 am 11:50 Mostly Cloudy 45 7 45 7 100 100 WNW 3 6 30.45 1031 30 48 N/A
12:20 pm 12:20 Mostly Cloudy 46 8 45 7 93 93 VRB 2 4 30.45 1031 30 48 N/A
12:50 pm 12:50 Mostly Cloudy 45 7 43 6 93 93 VRB 2 4 30.45 1031 30 48 N/A
1:20 pm 13:20 Mostly Cloudy 45 7 43 6 93 93 VRB 3 6 30.45 1031 30 48 N/A
1:50 pm 13:50 Mostly Cloudy 46 8 41 5 82 82 VRB 5 7 30.45 1031 30 48 N/A
2:20 pm 14:20 Mostly Cloudy 45 7 41 5 87 87 VRB 2 4 30.45 1031 30 48 N/A
2:50 pm 14:50 Mostly Cloudy 45 7 41 5 87 87 VRB 1 2 30.45 1031 30 48 N/A
3:20 pm 15:20 Mostly Cloudy 45 7 41 5 87 87 VRB 2 4 30.45 1031 30 48 N/A
3:50 pm 15:50 Mostly Cloudy 45 7 39 4 81 81 VRB 2 4 30.45 1031 30 48 N/A
4:20 pm 16:20 Mostly Cloudy 45 7 39 4 81 81 VRB 2 4 30.45 1031 30 48 N/A
4:50 pm 16:50 Mostly Cloudy 43 6 41 5 93 93 VRB 2 4 30.45 1031 30 48 N/A
5:20 pm 17:20 Mostly Cloudy 43 6 39 4 87 87 VRB 2 4 30.48 1032 30 48 N/A
5:50 pm 17:50 Mostly Cloudy 43 6 39 4 87 87 VRB 3 6 30.48 1032 30 48 N/A
6:20 pm 18:20 Mostly Cloudy 43 6 39 4 87 87 VRB 1 2 30.45 1031 30 48 N/A

Powered by AerisWeather